TimeMST,TemperatureF,Dew PointF,Humidity,Sea Level PressureIn,VisibilityMPH,Wind Direction,Wind SpeedMPH,Gust SpeedMPH,PrecipitationIn,Events,Conditions,WindDirDegrees,DateUTC
12:53 AM,37.0,21.9,54,30.30,10.0,Calm,Calm,-,N/A,,Clear,0,2013-02-15 07:53:00
1:53 AM,36.0,21.0,55,30.29,8.0,SSW,4.6,-,N/A,,Clear,210,2013-02-15 08:53:00
2:53 AM,35.1,19.9,54,30.30,10.0,Calm,Calm,-,N/A,,Clear,0,2013-02-15 09:53:00
3:53 AM,34.0,19.9,56,30.30,10.0,Calm,Calm,-,N/A,,Clear,0,2013-02-15 10:53:00
4:53 AM,34.0,21.0,59,30.31,10.0,SSE,6.9,-,N/A,,Clear,150,2013-02-15 11:53:00
5:53 AM,35.1,19.9,54,30.34,10.0,Calm,Calm,-,N/A,,Clear,0,2013-02-15 12:53:00
6:53 AM,33.1,17.1,52,30.37,10.0,Calm,Calm,-,N/A,,Clear,0,2013-02-15 13:53:00
7:53 AM,34.0,19.0,54,30.39,10.0,Calm,Calm,-,N/A,,Clear,0,2013-02-15 14:53:00
8:53 AM,37.0,21.9,54,30.42,10.0,Calm,Calm,-,N/A,,Clear,0,2013-02-15 15:53:00
9:53 AM,39.9,16.0,38,30.43,10.0,NNW,3.5,-,N/A,,Clear,340,2013-02-15 16:53:00
10:53 AM,43.0,15.1,32,30.41,10.0,Variable,3.5,-,N/A,,Clear,0,2013-02-15 17:53:00
11:53 AM,46.9,17.1,30,30.39,10.0,Calm,Calm,-,N/A,,Clear,0,2013-02-15 18:53:00
12:53 PM,48.0,18.0,30,30.37,10.0,Calm,Calm,-,N/A,,Clear,0,2013-02-15 19:53:00
1:53 PM,50.0,18.0,28,30.36,10.0,NNE,5.8,-,N/A,,Clear,20,2013-02-15 20:53:00
2:53 PM,52.0,17.1,25,30.33,10.0,East,3.5,-,N/A,,Clear,90,2013-02-15 21:53:00
3:53 PM,53.1,18.0,25,30.33,10.0,ENE,5.8,-,N/A,,Clear,60,2013-02-15 22:53:00
4:53 PM,53.1,17.1,24,30.33,10.0,NE,4.6,-,N/A,,Clear,50,2013-02-15 23:53:00
5:53 PM,48.9,19.9,32,30.34,10.0,East,3.5,-,N/A,,Clear,80,2013-02-16 00:53:00
6:53 PM,46.0,19.0,34,30.36,10.0,Calm,Calm,-,N/A,,Clear,0,2013-02-16 01:53:00
7:53 PM,45.0,19.0,36,30.37,10.0,South,4.6,-,N/A,,Clear,190,2013-02-16 02:53:00
8:53 PM,43.0,18.0,37,30.38,10.0,SSW,3.5,-,N/A,,Clear,210,2013-02-16 03:53:00
9:53 PM,39.9,19.0,43,30.40,10.0,Calm,Calm,-,N/A,,Clear,0,2013-02-16 04:53:00
10:53 PM,37.9,19.0,47,30.40,8.0,Calm,Calm,-,N/A,,Clear,0,2013-02-16 05:53:00
11:53 PM,37.0,19.0,48,30.40,8.0,Calm,Calm,-,N/A,,Clear,0,2013-02-16 06:53:00